Location: Poughquag
(41.6090°N, 73.6820°W)
Time: 03:05:07
(UTC-04:00)

Vanguard 1 Rocket - Pass Details

Date: 05 June 2020
Orbit: 653 x 4224 km, 34.3° (Epoch: 06 July)

Event Time Altitude Azimuth Distance (km) Brightness Sun altitude
Rises 01:44:16 0° 256° (WSW) 8,227 12.0 -24.7°
Reaches altitude 10° 01:50:30 10° 255° (WSW) 6,883 11.6 -24.4°
Maximum altitude 02:10:45 64° 180° (S) 2,627 9.3 -23.3°
Drops below altitude 10° 02:21:08 10° 102° (ESE) 3,787 10.7 -22.6°
Sets 02:23:31 0° 98° (E) 4,456 11.1 -22.5°
